Location: ??????????
(54.8537°N, 38.8755°E)
Time: 23:58:41
(UTC+00:00)

Transit 4A - All Passes

Search period start: 11 September 2024 00:00
Search period end: 21 September 2024 00:00
Orbit: 866 x 976 km, 66.8° (Epoch: 11 September)

Date Brightness Start Highest point End Pass type
(mag) Time Alt. Az. Time Alt. Az. Time Alt. Az.
11 Sep - 00:47:32 10° S 00:52:36 31° ESE 00:57:47 10° NE visible
11 Sep - 02:32:36 10° SW 02:38:31 73° NW 02:44:36 10° NE daylight
11 Sep - 04:20:28 10° W 04:25:48 32° NNW 04:31:15 10° NE daylight
11 Sep - 06:08:44 10° NW 06:13:51 27° N 06:19:06 10° ENE daylight
11 Sep - 07:55:44 10° NW 08:01:38 46° NNE 08:07:40 10° ESE daylight
11 Sep - 09:42:11 10° NW 09:48:17 64° SW 09:54:31 10° SSE daylight
11 Sep - 11:30:00 10° WNW 11:33:34 16° WSW 11:37:10 10° SW daylight
12 Sep - 00:55:54 10° S 01:01:22 42° ESE 01:06:59 10° NE visible
12 Sep - 02:41:45 10° WSW 02:47:36 59° NW 02:53:37 10° NE daylight
12 Sep - 04:29:56 10° WNW 04:35:07 29° NNW 04:40:27 10° NE daylight
12 Sep - 06:17:58 10° NW 06:23:13 29° NNE 06:28:35 10° ENE daylight
12 Sep - 08:04:45 10° NW 08:10:48 56° NE 08:16:59 10° ESE daylight
12 Sep - 09:51:15 10° NW 09:57:11 48° WSW 10:03:12 10° SSE daylight
12 Sep - 11:40:35 10° W 11:42:09 11° W 11:43:43 10° WSW daylight
12 Sep - 23:22:40 10° SE 23:25:10 13° E 23:27:40 10° ENE visible
13 Sep - 01:04:29 10° SSW 01:10:12 57° ESE 01:16:07 10° NE visible
13 Sep - 02:51:01 10° WSW 02:56:45 48° NNW 03:02:39 10° NE daylight
13 Sep - 04:39:22 10° WNW 04:44:28 28° N 04:49:42 10° NE daylight
13 Sep - 06:27:09 10° NW 06:32:33 32° NNE 06:38:04 10° E daylight
13 Sep - 08:13:45 10° NW 08:19:55 69° NE 08:26:12 10° SE daylight
13 Sep - 10:00:25 10° NW 10:06:00 36° WSW 10:11:41 10° S daylight
13 Sep - 23:29:52 10° SSE 23:33:45 18° ESE 23:37:41 10° ENE visible
14 Sep - 01:13:16 10° SSW 01:19:07 75° SE 01:25:11 10° NE visible
14 Sep - 03:00:22 10° W 03:05:56 40° NNW 03:11:43 10° NE daylight
14 Sep - 04:48:46 10° WNW 04:53:50 27° N 04:59:01 10° NE daylight
14 Sep - 06:36:15 10° NW 06:41:51 35° NNE 06:47:34 10° E daylight
14 Sep - 08:22:45 10° NW 08:28:58 85° NE 08:35:19 10° SE daylight
14 Sep - 10:09:40 10° NW 10:14:46 27° WSW 10:19:56 10° SSW daylight
14 Sep - 23:37:43 10° SSE 23:42:24 25° ESE 23:47:12 10° ENE visible
15 Sep - 01:22:11 10° SW 01:28:05 86° NW 01:34:13 10° NE visible
15 Sep - 03:09:46 10° W 03:15:12 35° NNW 03:20:48 10° NE daylight
15 Sep - 04:58:07 10° NW 05:03:13 27° N 05:08:26 10° ENE daylight
15 Sep - 06:45:19 10° NW 06:51:06 41° NNE 06:57:00 10° E daylight
15 Sep - 08:31:46 10° NW 08:37:57 76° SW 08:44:16 10° SSE daylight
15 Sep - 10:19:05 10° WNW 10:23:27 20° WSW 10:27:51 10° SSW daylight
15 Sep - 23:45:55 10° S 23:51:08 34° ESE 23:56:29 10° NE visible
16 Sep - 01:31:14 10° SW 01:37:08 69° NW 01:43:14 10° NE visible
16 Sep - 03:19:12 10° W 03:24:30 31° NNW 03:29:57 10° NE daylight
16 Sep - 05:07:25 10° NW 05:12:35 28° N 05:17:53 10° ENE daylight
16 Sep - 06:54:20 10° NW 07:00:18 49° NE 07:06:24 10° ESE daylight
16 Sep - 08:40:49 10° NW 08:46:53 59° WSW 08:53:05 10° SSE daylight
16 Sep - 10:28:54 10° WNW 10:32:04 14° WSW 10:35:16 10° SW daylight
16 Sep - 23:54:21 10° S 23:59:55 46° ESE 00:05:40 10° NE visible
17 Sep - 01:40:25 10° WSW 01:46:14 55° NW 01:52:16 10° NE visible
17 Sep - 03:28:39 10° WNW 03:33:50 29° NNW 03:39:09 10° NE daylight
17 Sep - 05:16:38 10° NW 05:21:56 30° NNE 05:27:21 10° ENE daylight
17 Sep - 07:03:21 10° NW 07:09:28 59° NE 07:15:41 10° ESE daylight
17 Sep - 08:49:54 10° NW 08:55:45 45° WSW 09:01:42 10° S daylight
17 Sep - 22:20:37 10° SE 22:23:38 14° ESE 22:26:42 10° ENE visible
18 Sep - 00:02:59 10° SSW 00:08:46 62° SE 00:14:45 10° NE visible
18 Sep - 01:49:42 10° WSW 01:55:24 46° NNW 02:01:17 10° NE visible
18 Sep - 03:38:05 10° WNW 03:43:11 27° N 03:48:25 10° NE daylight
18 Sep - 05:25:47 10° NW 05:31:15 33° NNE 05:36:51 10° E daylight
18 Sep - 07:12:21 10° NW 07:18:33 73° NE 07:24:52 10° SE daylight
18 Sep - 08:59:04 10° NW 09:04:33 34° WSW 09:10:07 10° S daylight
18 Sep - 22:28:04 10° SSE 22:32:14 20° ESE 22:36:29 10° ENE visible
19 Sep - 00:11:48 10° SW 00:17:42 80° SE 00:23:48 10° NE visible
19 Sep - 01:59:04 10° W 02:04:37 39° NNW 02:10:21 10° NE visible
19 Sep - 03:47:28 10° WNW 03:52:34 27° N 03:57:46 10° NE daylight
19 Sep - 05:34:52 10° NW 05:40:32 37° NNE 05:46:20 10° E daylight
19 Sep - 07:21:22 10° NW 07:27:35 89° SW 07:33:56 10° SE daylight
19 Sep - 09:08:21 10° WNW 09:13:17 25° WSW 09:18:17 10° SSW daylight
19 Sep - 22:36:02 10° SSE 22:40:55 28° ESE 22:45:54 10° NE visible
20 Sep - 00:20:46 10° SW 00:26:41 81° NW 00:32:50 10° NE visible
20 Sep - 02:08:28 10° W 02:13:53 34° NNW 02:19:26 10° NE visible
20 Sep - 03:56:48 10° NW 04:01:56 27° N 04:07:10 10° ENE daylight
20 Sep - 05:43:55 10° NW 05:49:46 43° NNE 05:55:45 10° ESE daylight
20 Sep - 07:30:22 10° NW 07:36:33 71° SW 07:42:51 10° SSE daylight
20 Sep - 09:17:52 10° WNW 09:21:57 18° WSW 09:26:05 10° SSW daylight
20 Sep - 22:44:18 10° S 22:49:39 37° ESE 22:55:09 10° NE visible
